This is the latest recevied weather packets stored in our database for station/object N0QWM. If no packets are shown the sender has not sent any weather packets the latest 10 day(s).
| Time | Temp. | Humidity | Pressure | Rain* | Wind** | Luminosity | Snow |
|---|---|---|---|---|---|---|---|
| 1788478582 | 32.22° C | 64% | 1019.5 hPa | 0 mm | - | 27 W/m² | - |
| 1788478273 | 32.22° C | 64% | 1019.5 hPa | 0 mm | - | 33 W/m² | - |
| 1788477967 | 32.22° C | 65% | 1019.5 hPa | 0 mm | - | 42 W/m² | - |
| 1788477663 | 32.22° C | 65% | 1019.6 hPa | 0 mm | - | 40 W/m² | - |
| 1788477357 | 32.22° C | 64% | 1019.6 hPa | 0 mm | - | 38 W/m² | - |
| 1788477051 | 32.22° C | 66% | 1019.6 hPa | 0 mm | - | 39 W/m² | - |
| 1788476748 | 32.22° C | 65% | 1019.7 hPa | 0 mm | - | 42 W/m² | - |
| 1788476446 | 32.22° C | 64% | 1019.6 hPa | 0 mm | - | 45 W/m² | - |
| 1788476143 | 32.22° C | 64% | 1019.5 hPa | 0 mm | - | 45 W/m² | - |
| 1788475840 | 32.22° C | 63% | 1019.4 hPa | 0 mm | - | 44 W/m² | - |
| 1788475536 | 32.78° C | 62% | 1019.3 hPa | 0 mm | - | 46 W/m² | - |
| 1788475232 | 33.33° C | 60% | 1019.4 hPa | 0 mm | - | 49 W/m² | - |
| 1788474931 | 33.89° C | 60% | 1019.2 hPa | 0 mm | - | 49 W/m² | - |
| 1788474630 | 34.44° C | 57% | 1019.3 hPa | 0 mm | - | 49 W/m² | - |
| 1788474325 | 34.44° C | 56% | 1019.3 hPa | 0 mm | - | 48 W/m² | - |
| 1788474024 | 35° C | 55% | 1019.3 hPa | 0 mm | - | 49 W/m² | - |
| 1788473720 | 35° C | 54% | 1019.3 hPa | 0 mm | - | 52 W/m² | - |
| 1788473427 | 35° C | 54% | 1019.1 hPa | 0 mm | - | 55 W/m² | - |
| 1788473110 | 35° C | 54% | 1019 hPa | 0 mm | - | 59 W/m² | - |
| 1788472810 | 35° C | 54% | 1019.1 hPa | 0 mm | - | 65 W/m² | - |
| 1788472505 | 35° C | 54% | 1019 hPa | 0 mm | - | 69 W/m² | - |
| 1788472203 | 35.56° C | 52% | 1018.5 hPa | 0 mm | - | 73 W/m² | - |
| 1788471898 | 35.56° C | 52% | 1018.9 hPa | 0 mm | - | 75 W/m² | - |
| 1788471593 | 36.11° C | 52% | 1018.8 hPa | 0 mm | - | 75 W/m² | - |
| 1788471289 | 36.67° C | 51% | 1019 hPa | 0 mm | - | 78 W/m² | - |
* Rain latest hour (hover to see other rain measurements)
** Current wind speed in m/s (hover to see current wind gust speed)